Regional Weather Roundup
Issued by NWS

Home | Current Version | Previous Version | Text Only | Print | Product List | Glossary On
Versions: 1 2 3 4 5 6 7 8 9 10 11 12 13 14 15 16 17 18 19 20 21 22 23 24 25 26 27 28 29 30 31 32 33 34 35 36 37 38 39 40 41 42 43 44 45 46 47 48 49 50
000
ASUS46 KSEW 220510
RWRWA

WASHINGTON REGIONAL WEATHER ROUNDUP
NATIONAL WEATHER SERVICE SEATTLE WA
900 PM PST WED FEB 21 2018

NOTE:"FAIR" INDICATES FEW OR NO CLOUDS BELOW 12,000 FEET WITH NO
SIGNIFICANT WEATHER AND/OR OBSTRUCTIONS TO VISIBILITY.

WAZ507-509-555>559-220600-
SEATTLE, TACOMA, EVERETT, AND VICINITY

CITY           SKY/WX    TMP DP  RH WIND       PRES   REMARKS
EVERETT        LGT SNOW  29  27  92 E5        30.17S FOG
BOEING FIELD   LGT SNOW  32  30  92 SE7       30.19F FOG
RENTON         LGT SNOW  32  30  92 VRB3      30.19F FOG
SEATAC AIRPORT LGT SNOW  31  29  92 SE8       30.16F FOG
JBLM-MCCHORD   LGT SNOW  31  31  99 CALM      30.17S FOG
PUYALLUP       LGT SNOW  30  30 100 CALM      30.15F
BREMERTON      LGT SNOW  30  29  96 CALM      30.16S FOG
JBLM-FT LEWIS  LGT SNOW  30  30 100 E3        30.15S FOG
TACOMA NARROWS LGT SNOW  30  30 100 SE5       30.17S VSB 1
$$

WAZ001-503-506-510-514-515-220600-
NORTH INTERIOR

CITY           SKY/WX    TMP DP  RH WIND       PRES   REMARKS
BELLINGHAM     FLURRIES  26  25  96 N7        30.22S
FRIDAY HARBOR  CLOUDY    30  27  88 NE7       30.21S
EASTSOUND      CLOUDY    30  28  93 CALM      30.21R
PORT ANGELES   CLOUDY    29  29 100 SW3       30.17R
EDIZ HOOK      CLOUDY    32  30  92 E5        30.18S
PORT TOWNSEND  LGT SNOW  30  30 100 CALM      30.20S
NAS WHIDBEY    CLOUDY    32  27  81 E10       30.24S FOG     WCI  24
ARLINGTON      MIX PCPN  28  26  92 NE5       30.21S
BURLINGTON     CLOUDY    28  25  86 NE6       30.22S
$$

WAZ020-022-039-040-504-511-512-220600-
SOUTHWEST INTERIOR

CITY           SKY/WX    TMP DP  RH WIND       PRES   REMARKS
SHELTON        LGT SNOW  32  30  92 CALM      30.13S FOG
OLYMPIA        LGT SNOW  30  30 100 S6        30.16S FOG
CHEHALIS       CLOUDY    32  32 100 S8        30.16F FOG
KELSO          LGT SNOW  32  30  92 SE6       30.20S FOG
VANCOUVER      LGT SNOW  34  32  92 E6        30.21F FOG
SCAPPOOSE, OR  LGT SNOW  32  30  92 SE6       30.20F FOG
PORTLAND, OR   LGT SNOW  33  31  92 E8        30.21F FOG
$$

WAZ021-516-517-220600-
WASHINGTON COAST

CITY           SKY/WX    TMP DP  RH WIND       PRES   REMARKS
FORKS          MOCLDY    30  28  92 NE5       30.12F
HOQUIAM        CLOUDY    33  32  96 E5        30.14S
ASTORIA, OR    LGT SNOW  32  31  96 S5        30.15F VSB 1
$$

WAZ019-023-024-040-567>569-220600-
CASCADE MOUNTAINS AND COLUMBIA GORGE

CITY           SKY/WX    TMP DP  RH WIND       PRES   REMARKS
STAMPEDE PASS  LGT SNOW  17  14  88 CALM      29.95S FOG
TROUTDALE, OR  FLURRIES  34  30  85 E5        30.22F
HOOD RIVER, OR CLOUDY    27  25  93 CALM      30.19S
THE DALLES, OR CLOUDY    29  20  69 CALM      30.21F
$$

WAZ026-027-041>044-520-521-220600-
EAST SLOPES

CITY           SKY/WX    TMP DP  RH WIND       PRES   REMARKS
OMAK           CLOUDY    19  17  92 N10       30.21R FOG     WCI   7
WENATCHEE      CLOUDY    22  11  62 W5        30.16R
ELLENSBURG     CLOUDY    24  17  74 CALM      30.09F
YAKIMA         CLOUDY    28  18  66 E5        30.15F
SUNNYSIDE ARPT CLOUDY    26  16  65 E5        30.18S
YAKIMA TC      FAIR      24  15  69 CALM      30.11S
$$

WAZ028-034-035-220600-
COLUMBIA BASIN

CITY           SKY/WX    TMP DP  RH WIND       PRES   REMARKS
EPHRATA        CLOUDY    24  12  60 N6        30.15S
MOSES LAKE     CLOUDY    26  15  63 SE6       30.16S
PASCO          CLOUDY    28  17  63 SW3       30.21S
RICHLAND ARPT  CLOUDY    29  18  63 CALM      30.21S
HERMISTON, OR  CLOUDY    25  19  78 CALM      30.19S
$$

WAZ036>038-220600-
NORTHEAST WASHINGTON

CITY           SKY/WX    TMP DP  RH WIND       PRES   REMARKS
SPOKANE GEIGER MOCLDY    18  14  84 NE5       30.10S
SPOKANE FELTS  CLOUDY    20  12  71 N6        30.14S
FAIRCHILD AFB  CLOUDY    17  17  99 NE6       30.08S
COEURDALENE,ID MOCLDY    12   7  80 NE7       30.12R
DEER PARK      LGT SNOW  17  13  84 NE6       30.13S FOG
$$

WAZ029>033-220600-
SOUTHEAST WASHINGTON

CITY           SKY/WX    TMP DP  RH WIND       PRES   REMARKS
PULLMAN        CLOUDY    20  15  81 N3        30.09S
LEWISTON, ID   CLOUDY    27  19  72 W3        30.13S
WALLA WALLA    CLOUDY    29  20  69 S6        30.15F
PENDLETON, OR  PTCLDY    23  17  78 SE5       30.12F
$$



USA.gov is the U.S. government's official web portal to all federal, state and local government web resources and services.